This is the latest recevied weather packets stored in our database for station/object W2OBX. If no packets are shown the sender has not sent any weather packets the latest 10 day(s).
| Time | Temp. | Humidity | Pressure | Rain* | Wind** | Luminosity | Snow |
|---|---|---|---|---|---|---|---|
| 1777392676 | 17.78° C | 97% | 1019.4 hPa | 0 mm | - | 116 W/m² | - |
| 1777392373 | 17.22° C | 96% | 1019.3 hPa | 0 mm | - | 114 W/m² | - |
| 1777392069 | 16.67° C | 96% | 1019.5 hPa | 0 mm | - | 109 W/m² | - |
| 1777391763 | 16.67° C | 97% | 1019.4 hPa | 0 mm | - | 170 W/m² | - |
| 1777391460 | 16.67° C | 98% | 1019.7 hPa | 0 mm | - | 89 W/m² | - |
| 1777391156 | 16.67° C | 99% | 1019.5 hPa | 0 mm | - | 105 W/m² | - |
| 1777390852 | 16.67° C | 99% | 1019.7 hPa | 0 mm | - | 104 W/m² | - |
| 1777390549 | 16.67° C | 99% | 1019.7 hPa | 0 mm | - | 106 W/m² | - |
| 1777390246 | 16.67° C | 99% | 1020 hPa | 0 mm | - | 107 W/m² | - |
| 1777389941 | 16.67° C | 99% | 1019.8 hPa | 0 mm | - | 96 W/m² | - |
| 1777389639 | 16.11° C | 99% | 1019.8 hPa | 0 mm | - | 103 W/m² | - |
| 1777389335 | 16.11° C | 99% | 1019.8 hPa | 0 mm | - | 95 W/m² | - |
| 1777389033 | 16.11° C | 99% | 1019.9 hPa | 0 mm | - | 105 W/m² | - |
| 1777388730 | 16.11° C | 99% | 1020.3 hPa | 0 mm | - | 110 W/m² | - |
| 1777388427 | 15.56° C | 99% | 1020.2 hPa | 0 mm | - | 85 W/m² | - |
| 1777388126 | 15.56° C | 99% | 1020.1 hPa | 0 mm | - | 61 W/m² | - |
| 1777387822 | 15.56° C | 99% | 1020.3 hPa | 0 mm | - | 58 W/m² | - |
| 1777387520 | 15.56° C | 99% | 1019.9 hPa | 0 mm | - | 74 W/m² | - |
| 1777387215 | 15.56° C | 99% | 1019.8 hPa | 0 mm | - | 76 W/m² | - |
| 1777386910 | 15.56° C | 99% | 1019.8 hPa | 0 mm | - | 68 W/m² | - |
| 1777386608 | 15° C | 99% | 1019.7 hPa | 0 mm | - | 66 W/m² | - |
| 1777386304 | 15° C | 99% | 1019.9 hPa | 0 mm | - | 58 W/m² | - |
| 1777386002 | 15° C | 99% | 1019.7 hPa | 0 mm | - | 50 W/m² | - |
| 1777385698 | 15° C | 99% | 1019.5 hPa | 0 mm | - | 49 W/m² | - |
| 1777385395 | 15° C | 99% | 1019.5 hPa | 0 mm | - | 45 W/m² | - |
* Rain latest hour (hover to see other rain measurements)
** Current wind speed in m/s (hover to see current wind gust speed)